Home   Weather   Cape Dorset   Past weeks
Flag for Canada

Past Weather in Cape Dorset, Nunavut, Canada — Yesterday and Last 2 Weeks

Now
25 °F

Overcast.


Feels Like: 18 °F
Forecast: 34 / 22 °F
Wind: 6 mph from Northwest

Location: Cape Dorset

Current Time: May 31, 2020 at 7:33:12 am

Latest Report: May 31, 2020 at 6:00 am


Visibility: 9 mi

Pressure: 29.98 "Hg

Humidity: 69%

Dew Point: 16 °F

Location of Cape DorsetLocation

Past Weather in Cape Dorset — Graph

°F

Cape Dorset Temperature Yesterday

Maximum temperature yesterday: 27 °F (at 11:00 am)
Minimum temperature yesterday: 23 °F (at 1:00 am)
Average temperature yesterday: 25 °F

High & Low Weather Summary for the Past Weeks

 TemperatureHumidityPressure
High36 °F (May 20, 6:59 am)100% (May 16, 6:00 am)30.34 "Hg (May 16, 6:00 am)
Low19 °F (May 19, 5:00 am)63% (May 19, 7:00 am)28.96 "Hg (May 20, 10:36 am)
Average26 °F87%29.82 "Hg
* Reported May 16 6:00 am — May 31 6:00 am, Cape Dorset. Weather by CustomWeather, © 2020

Note: Actual official high and low records may vary slightly from our data, if they occured in-between our weather recording intervals... More about our weather records

Cape Dorset Weather History for the Previous 24 Hours

Scroll right to see more
 ConditionsComfort  
Time TempWeatherWind HumidityBarometerVisibility
6:00 am
Sun, May 31
25 °FOvercast.6 mph69%29.98 "Hg9 mi
5:00 am25 °FOvercast.2 mph69%29.97 "Hg9 mi
4:32 am25 °FOvercast.2 mph69%29.97 "Hg9 mi
4:00 am25 °FOvercast.No wind69%29.96 "Hg9 mi
3:00 am25 °FOvercast.5 mph74%29.95 "Hg9 mi
2:00 am25 °FOvercast.3 mph74%29.95 "Hg9 mi
1:00 am25 °FOvercast.6 mph74%29.94 "Hg9 mi
12:00 am25 °FOvercast.3 mph74%29.94 "Hg9 mi
11:00 pm
Sat, May 30
25 °FOvercast.7 mph74%29.93 "Hg9 mi
10:53 pm25 °FOvercast.5 mph74%29.93 "Hg9 mi
10:00 pm25 °FOvercast.6 mph74%29.94 "Hg9 mi
9:00 pm25 °FOvercast.5 mph74%29.93 "Hg9 mi
8:00 pm25 °FOvercast.5 mph74%29.93 "Hg9 mi
7:00 pm27 °FOvercast.6 mph64%29.92 "Hg9 mi
6:00 pm27 °FOvercast.6 mph69%29.91 "Hg9 mi
5:00 pm27 °FMostly cloudy.6 mph69%29.89 "Hg9 mi
4:00 pm27 °FMostly cloudy.9 mph69%29.88 "Hg9 mi
3:43 pm27 °FOvercast.9 mph69%29.88 "Hg9 mi
3:00 pm27 °FOvercast.8 mph69%29.87 "Hg9 mi
2:23 pm27 °FOvercast.9 mph69%29.87 "Hg9 mi
2:13 pm27 °FLight snow. Overcast.8 mph64%29.86 "Hg9 mi
2:00 pm27 °FOvercast.10 mph69%29.86 "Hg9 mi
1:22 pm27 °FOvercast.10 mph69%29.86 "Hg9 mi
1:00 pm27 °FLight snow. Mostly cloudy.9 mph74%29.86 "Hg9 mi
12:43 pm27 °FLight snow. Overcast.10 mph69%29.86 "Hg9 mi
12:24 pm27 °FLight snow. Mostly cloudy.12 mph80%29.86 "Hg9 mi
12:14 pm27 °FCloudy.10 mph80%29.86 "Hg9 mi
11:00 am27 °FOvercast.13 mph80%29.86 "Hg9 mi
10:11 am25 °FMore clouds than sun.9 mph80%29.85 "Hg9 mi
10:00 am25 °FLight snow. Overcast.9 mph80%29.85 "Hg9 mi
9:00 am25 °FOvercast.10 mph80%29.85 "Hg9 mi
8:00 am23 °FOvercast.14 mph86%29.84 "Hg9 mi
7:21 am23 °FOvercast.13 mph86%29.84 "Hg9 mi
7:00 am23 °FOvercast.12 mph86%29.84 "Hg9 mi
Weather by CustomWeather, © 2020

See weather overview

Advertising